Torna al catalogo

SL-8 R/B

AttivoLEO
NORAD 1575·ROCKET BODY·🇷🇺 Russia

Lanciato Sep 3, 1965 da Baikonur Cosmodrome

Loading…

Prossimi Passaggi (prossime 24 ore)

TLE

AggiornatoSource: Space-Track

Epoca: Sep 14, 2026, 07:06 UTC

1 01575U 65070F   26257.29651436 -.00000100  00000-0 -19754-4 0  9997
2 01575  56.1224 228.3833 0098567 200.9031 302.1194 12.57010220801963

Traccia SL-8 R/B in tempo reale con AllMySat

Download on the App Store